Miscellaneous Local Product
Issued by NWS North Platte, NE

Home | Current Version | Previous Version | Graphics & Text | Print | Product List | Glossary On
Versions: 1 2 3 4 5 6 7 8 9 10 11 12 13 14 15 16 17 18 19 20 21 22 23 24 25 26 27 28 29 30 31 32 33 34 35 36 37 38 39 40 41 42 43 44 45 46 47 48 49 50
357
AXUS43 KLBF 091610
MISLBF


WESTERN AND NORTH CENTRAL NEBRASKA HOURLY WEATHER ROUNDUP
NATIONAL WEATHER SERVICE NORTH PLATTE NE
1000 AM CST FRI DEC 09 2016

NOTE: "FAIR" INDICATES FEW OR NO CLOUDS BELOW 12,000 FEET WITH NO
SIGNIFICANT WEATHER AND/OR OBSTRUCTIONS TO VISIBILITY.

NOTE: STATIONS NOT REPORTING VARIABLES SUCH AS SKY/WEATHER OR
PRESSURE ARE PROVIDED BY RAWS AND APRS NETWORKS AND ARE NOT UNDER
NATIONAL WEATHER SERVICE QUALITY CONTROL.

...OBSERVATIONS IN AND NEAR THE EASTERN PANHANDLE OF NEBRASKA...

CITY           SKY/WX    TMP DP  RH WIND       PRES   REMARKS
PINE RIDGE     CLOUDY     4   0  83 NW3       30.26R
CHADRON        CLOUDY     4  -2  76 N7        30.29R WCI  -8
ALLIANCE       CLOUDY    14   6  70 SE5       30.17R WCI   6
SIDNEY         CLOUDY    13   5  70 SW7       30.15R WCI   3
CRESCENT LAKE    N/A     17   7  65 S9G16       N/A  WCI   6
$$

...OBSERVATIONS IN NORTHERN NEBRASKA AND FAR SOUTHERN SOUTH DAKOTA...

CITY           SKY/WX    TMP DP  RH WIND       PRES   REMARKS
WINNER         CLOUDY     7   3  84 E10       30.46R WCI  -8
VALENTINE      LGT SNOW  11   4  73 SE10      30.36S WCI  -3
THEDFORD       CLOUDY    16   6  65 SE9G16    30.33R WCI   4
AINSWORTH      CLOUDY    12   6  77 SE8       30.39R WCI   0
O`NEILL        CLOUDY    10   6  83 SE9       30.48F WCI  -3
BROKEN BOW     CLOUDY    12   7  80 SE10      30.40S WCI  -1
VALENTINE NWR    N/A      8   2  76 SE9         N/A  WCI  -5
BUTTE            N/A      5   2  88 E3          N/A
HALSEY           N/A     11   2  66 SE8         N/A  WCI  -1
CHAMBERS         N/A     12  -5  47 E7          N/A  WCI   1
EWING            N/A     10   7  87 CALM        N/A
$$

...OBSERVATIONS IN SOUTHWEST NEBRASKA AND FAR NORTHEAST COLORADO...

CITY           SKY/WX    TMP DP  RH WIND       PRES   REMARKS
HOLYOKE        FAIR      19  10  68 S12       30.21R WCI   7
IMPERIAL       CLOUDY    17   9  70 S17G25    30.25F WCI   1
OGALLALA       CLOUDY    17  10  73 S10       30.27S WCI   4
NORTH PLATTE   CLOUDY    17   6  62 S9        30.34R WCI   6
MCCOOK         CLOUDY    19   9  65 S16       30.36R WCI   4
LEXINGTON      CLOUDY    18   9  68 SE14      30.41R WCI   4
STAPLETON        N/A     14   5  68 CALM        N/A
GOTHENBURG       N/A     14   6  69 SE10        N/A  WCI   1
CALLAWAY         N/A     15   9  77 SE12        N/A  WCI   2
$$

...OBSERVATIONS IN CENTRAL LINCOLN COUNTY AREA...

CITY           SKY/WX    TMP DP  RH WIND       PRES   REMARKS
N.P. AIRPORT   CLOUDY    17   6  62 S9        30.34R WCI   6
N.P. DOWNTOWN    N/A     15   7  71 S5G13       N/A  WCI   8
N.P. SOUTHEAST   N/A     14   6  72 S9G17       N/A  WCI   2
N.P. HILLCREST   N/A     16   8  69 S12         N/A  WCI   3
$$

...SOME OBSERVATIONS FROM AROUND THE REGION...

CITY           SKY/WX    TMP DP  RH WIND       PRES   REMARKS
LARAMIE        CLOUDY    30  22  72 W17       30.07R WCI  18
CHEYENNE       SUNNY     39  24  55 W17G29    30.03R WCI  30
DENVER         CLOUDY    27  19  72 SW6       30.08R WCI  20
AKRON          CLOUDY    13   5  70 NW8       30.13R WCI   2
SCOTTSBLUFF    CLOUDY    19   9  65 NE7       30.16R WCI  10
RAPID CITY     FLURRIES   0  -5  79 N12       30.33S WCI -17
BISMARCK       CLOUDY   -13 -18  78 CALM      30.57S
PIERRE         CLOUDY     2  -3  80 E9        30.50F WCI -13
SIOUX FALLS    CLOUDY     6   1  80 W3        30.57S
OMAHA          PTSUNNY   12   6  77 CALM      30.65R
GRAND ISLAND   CLOUDY    14   8  77 SE14      30.50F WCI  -1
KANSAS CITY    CLOUDY    18  10  71 CALM      30.66R
WICHITA        CLOUDY    23  14  68 S10       30.60S WCI  12
OKLAHOMA CITY  CLOUDY    25  13  60 SE8       30.62R WCI  16
DALLAS         PTSUNNY   34  13  41 E6        30.66R WCI  29
AMARILLO       CLOUDY    29  23  78 S25G31    30.34F WCI  14
DODGE CITY     CLOUDY    22   9  57 SE20      30.41R WCI   7
HAYS           CLOUDY    21  11  65 S16       30.46F WCI   7
GOODLAND       CLOUDY    17  10  74 S16       30.23F WCI   2
$$




USA.gov is the U.S. government's official web portal to all federal, state and local government web resources and services.